PulseSat

PulseSat

MOLNIYA 1-62

Last updated on April 20, 2019, 3:02 a.m. UTC

1 15214U 84089A   19109.44456722  .00000473  00000-0  66854-2 0  9991
2 15214  62.7545 188.6932 7135679 263.8532  18.1646  1.97956160221395
UTC
Height (km)
Latitude
Longitude
Inclination
Orbital Period

Next 30 passes for location: Hong Kong

Rise time Rise Azimuth (degrees) Set time Set Azimuth (degrees) Duration Max altitude (degrees)

No matching passes for this satellites

PulseSat

PulseSat is the new satellites software and hardware trackering solution by Pulsely.
Satellite Two Line Element Set source: US Air Force Space Command

Download PulseSat for iOS
© 2017 Pulsely Limited